Satellite: TechEdSat
Catalog number: 38854
Epoch time:      12311.57496445
Element set:      36
Inclination:      051.6471 deg
RA of node:       133.6083 deg
Eccentricity:    0.0014316
Arg of perigee:   252.8653 deg
Mean anomaly:     107.0183 deg
Mean motion:   15.54829764 rev/day
Decay rate:     3.9244e-04 rev/day^2
Epoch rev:             510
Checksum:              289

Satellite: F 1
Catalog number: 38855
Epoch time:      12311.76929167
Element set:      37
Inclination:      051.6486 deg
RA of node:       132.6587 deg
Eccentricity:    0.0014824
Arg of perigee:   249.4516 deg
Mean anomaly:     110.4873 deg
Mean motion:   15.54719119 rev/day
Decay rate:     3.7541e-04 rev/day^2
Epoch rev:             502
Checksum:              308

Satellite: WeWish
Catalog number: 38856
Epoch time:      12311.94585594
Element set:      47
Inclination:      051.6437 deg
RA of node:       131.5835 deg
Eccentricity:    0.0019121
Arg of perigee:   247.2156 deg
Mean anomaly:     112.6808 deg
Mean motion:   15.56350072 rev/day
Decay rate:     6.2938e-04 rev/day^2
Epoch rev:             505
Checksum:              296

/EX




More information about the Keps mailing list